Flag for Turkey Weather past 2 weeks in Bursa, Turkey

Now
49 °F

Passing clouds.


Feels Like: 48 °F
Forecast: 43 / 67 °F
Wind: 3 mph from Northwest

Location: Bursa

Current Time: Mar 5, 2015 at 9:43:45 PM

Latest Report: Mar 5, 2015 at 8:00 PM


Visibility: 8 mi

Pressure: 30.14 "Hg

Humidity: 61%

Dew point: 36 °F

Location of BursaLocation

Historic Weather in Bursa — Graph

°F

Bursa temperature yesterday

Maximum temperature yesterday: 53 °F (at 3:00 PM)
Minimum temperature yesterday: 37 °F (at 11:00 PM)
Average temperature yesterday: 47 °F

Past Weeks' High & Low Weather Summary

 TemperatureHumidityPressure
High64 °F (Feb 27, 4:00 PM)100% (Feb 19, 7:00 AM)30.41 "Hg (Feb 19, 7:00 AM)
Low26 °F (Feb 21, 7:00 AM)34% (Mar 5, 3:00 PM)29.75 "Hg (Feb 24, 4:00 PM)
Average47 °F75%30.08 "Hg
* Reported Feb 18 8:00 PM — Mar 5 8:00 PM, Bursa, Weather by CustomWeather, © 2015

Note: Actual official high and low records may vary slightly from our data, if they occured in-between our weather recording intervals... More about our weather records

Advertising

Bursa weather history for previous 24 hours

 ConditionsComfort  
Time TempWeatherWind HumidityBarometerVisibility
8:00 PM
Thu, Mar 5
49 °FPassing clouds.3 mph61%30.14 "Hg7 mi
7:00 PM51 °FPassing clouds.5 mph54%30.15 "Hg9 mi
6:00 PM55 °FPassing clouds.9 mph53%30.13 "Hg9 mi
5:00 PM59 °FPartly sunny.5 mph43%30.10 "Hg9 mi
4:00 PM62 °FPartly sunny.5 mph35%30.12 "Hg9 mi
3:00 PM62 °FPartly sunny.8 mph34%30.13 "Hg9 mi
2:00 PM59 °FPartly sunny.9 mph35%30.15 "Hg9 mi
1:00 PM56 °FScattered clouds.7 mph36%30.19 "Hg12 mi
12:00 PM54 °FScattered clouds.8 mph41%30.22 "Hg12 mi
11:00 AM50 °FPartly sunny.10 mph46%30.24 "Hg9 mi
10:00 AM47 °FScattered clouds.13 mph49%30.25 "Hg9 mi
9:00 AM43 °FScattered clouds.12 mph57%30.25 "Hg9 mi
8:00 AM40 °FScattered clouds.12 mph64%30.27 "Hg9 mi
5:00 AM35 °FClear.5 mph85%30.30 "Hg7 mi
2:00 AM36 °FClear.3 mph85%30.32 "Hg7 mi
11:00 PM
Wed, Mar 4
37 °FClear.2 mph86%30.34 "Hg7 mi
Weather by CustomWeather, © 2015

See weather overviewHow to use our weather pages